Weather History for Rhinelander, WI

Change the Weather History Date:

Saturday, September 28, 2013

  Actual Average Record
Temperature  
Mean Temperature 62 °F 50 °F  
Max Temperature 74 °F 61 °F 80 °F (1952)
Min Temperature 49 °F 39 °F 24 °F (1942)
Degree Days  
Heating Degree Days 3 15  
Month to date heating degree days 245 273  
Since 1 July heating degree days 435 400  
Cooling Degree Days 0 0  
Month to date cooling degree days 17 16  
Year to date cooling degree days 281 257  
Growing Degree Days 12 (Base 50)    
Moisture  
Dew Point 52 °F    
Average Humidity 75    
Maximum Humidity 96    
Minimum Humidity 53    
Precipitation  
Precipitation 0.32 in 0.14 in 1.02 in (1965)
Month to date precipitation 2.12 3.94  
Year to date precipitation 28.96 24.82  
Snow  
Snow 0.00 in - T in (1945)
Month to date snowfall 0.0  
Since 1 July snowfall 0.0  
Since 1 September snowfall 0.0  
Snow Depth 0.00 in    
Sea Level Pressure  
Sea Level Pressure 29.87 in    
Wind  
Wind Speed 12 mph (SW)    
Max Wind Speed 26 mph    
Max Gust Speed 36 mph    
Visibility 9 miles    
Events Rain    
T = Trace of Precipitation, MM = Missing Value Source: NWS Daily Summary

Daily Weather History Graph

Daily Weather History Graph

Search for Another Location

Airport:

Trip Planner

Search our weather history database for the weather conditions in past years. The results will help you decide how hot, cold, wet, or windy it might be!

Date:

Astronomy

Sep. 28, 2013 Rise Set
Actual Time 6:52 AM CDT 6:43 PM CDT
Civil Twilight 6:23 AM CDT 7:12 PM CDT
Nautical Twilight 5:48 AM CDT 7:47 PM CDT
Astronomical Twilight 5:13 AM CDT 8:22 PM CDT
Moon 12:24 AM CDT (9/28) 3:16 PM CDT (9/28)
Length of Visible Light 12h 49m
Length of Day
11h 50m
Waning Crescent, 36% of the Moon is Illuminated
Sep 28
Waning Crescent
Oct 4
New
Oct 11
First Quarter
Oct 18
Full
Oct 26
Last Quarter

Hourly Weather History & Observations

Time (CDT) Temp. Dew Point Humidity Pressure Visibility Wind Dir Wind Speed Gust Speed Precip Events Conditions
12:53 AM 59.0 °F 48.9 °F 69% 30.03 in 10.0 mi South 6.9 mph - N/A   Clear
1:53 AM 59.0 °F 46.9 °F 64% 30.02 in 10.0 mi South 5.8 mph - N/A   Clear
2:53 AM 59.0 °F 45.0 °F 60% 30.01 in 10.0 mi South 6.9 mph - N/A   Clear
3:53 AM 57.0 °F 45.0 °F 64% 29.99 in 10.0 mi SSE 6.9 mph - N/A   Clear
4:53 AM 55.9 °F 45.0 °F 67% 29.99 in 10.0 mi South 8.1 mph - N/A   Clear
5:53 AM 55.0 °F 46.0 °F 72% 29.99 in 10.0 mi SSE 6.9 mph - N/A   Clear
6:53 AM 55.0 °F 46.9 °F 74% 29.98 in 10.0 mi South 6.9 mph - N/A   Clear
7:53 AM 57.0 °F 48.0 °F 72% 29.97 in 10.0 mi South 8.1 mph 16.1 mph N/A   Partly Cloudy
8:53 AM 60.1 °F 50.0 °F 69% 29.95 in 10.0 mi South 10.4 mph 17.3 mph N/A   Partly Cloudy
9:53 AM 64.0 °F 52.0 °F 65% 29.92 in 10.0 mi South 10.4 mph 21.9 mph N/A   Clear
10:53 AM 68.0 °F 54.0 °F 61% 29.89 in 10.0 mi South 17.3 mph 25.3 mph N/A   Partly Cloudy
11:53 AM 70.0 °F 55.0 °F 59% 29.85 in 10.0 mi SSE 16.1 mph 31.1 mph N/A   Mostly Cloudy
12:53 PM 73.0 °F 55.9 °F 55% 29.79 in 10.0 mi South 17.3 mph 29.9 mph N/A   Clear
1:53 PM 73.0 °F 55.9 °F 55% 29.76 in 10.0 mi South 21.9 mph 34.5 mph N/A   Mostly Cloudy
2:53 PM 72.0 °F 55.9 °F 57% 29.74 in 10.0 mi South 19.6 mph 34.5 mph N/A   Overcast
3:53 PM 68.0 °F 57.9 °F 70% 29.75 in 8.0 mi South 11.5 mph 25.3 mph 0.00 in Rain Light Rain
4:53 PM 63.0 °F 60.1 °F 90% 29.75 in 3.0 mi South 9.2 mph 17.3 mph 0.08 in Rain Rain
5:02 PM 62.6 °F 60.8 °F 94% 29.76 in 2.5 mi South 11.5 mph 20.7 mph 0.02 in Rain Light Rain
5:11 PM 62.6 °F 60.8 °F 94% 29.75 in 1.8 mi South 12.7 mph - 0.05 in Rain Rain
5:25 PM 62.6 °F 60.8 °F 94% 29.75 in 2.0 mi SSW 13.8 mph 20.7 mph 0.09 in Rain Rain
5:28 PM 62.6 °F 60.8 °F 94% 29.78 in 1.5 mi West 23.0 mph 27.6 mph 0.14 in Rain Rain
5:36 PM 60.8 °F 57.2 °F 88% 29.80 in 1.5 mi West 20.7 mph 32.2 mph 0.15 in Rain Light Rain
5:38 PM 59.0 °F 55.4 °F 88% 29.80 in 3.0 mi West 20.7 mph 32.2 mph 0.15 in Rain Light Rain
5:46 PM 57.2 °F 55.4 °F 94% 29.80 in 10.0 mi West 20.7 mph 28.8 mph 0.15 in Rain Light Rain
5:53 PM 57.9 °F 55.0 °F 90% 29.81 in 10.0 mi West 19.6 mph 28.8 mph 0.15 in Rain Light Rain
6:53 PM 54.0 °F 52.0 °F 93% 29.84 in 9.0 mi WSW 15.0 mph 21.9 mph 0.08 in Rain Light Rain
7:02 PM 53.6 °F 51.8 °F 94% 29.82 in 8.0 mi WSW 10.4 mph 21.9 mph 0.00 in Rain Light Rain
7:19 PM 53.6 °F 51.8 °F 94% 29.84 in 10.0 mi West 10.4 mph - 0.01 in Rain Light Rain
7:49 PM 53.6 °F 51.8 °F 94% 29.86 in 10.0 mi WSW 8.1 mph - 0.01 in   Overcast
7:53 PM 53.1 °F 52.0 °F 96% 29.88 in 10.0 mi West 12.7 mph - 0.01 in   Overcast
8:01 PM 53.6 °F 51.8 °F 94% 29.86 in 10.0 mi West 11.5 mph 20.7 mph N/A   Overcast
8:12 PM 53.6 °F 50.0 °F 88% 29.87 in 10.0 mi West 13.8 mph - 0.00 in Rain Light Rain
8:53 PM 51.1 °F 50.0 °F 96% 29.88 in 10.0 mi West 8.1 mph - 0.00 in   Mostly Cloudy
9:11 PM 51.8 °F 50.0 °F 94% 29.88 in 10.0 mi West 6.9 mph - N/A   Mostly Cloudy
9:53 PM 52.0 °F 50.0 °F 93% 29.89 in 10.0 mi West 10.4 mph - N/A   Overcast
10:02 PM 51.8 °F 50.0 °F 94% 29.89 in 10.0 mi West 11.5 mph - N/A   Overcast
10:26 PM 51.8 °F 50.0 °F 94% 29.90 in 10.0 mi West 15.0 mph - 0.00 in   Overcast
10:53 PM 51.1 °F 50.0 °F 96% 29.90 in 10.0 mi WSW 9.2 mph - 0.00 in   Overcast
11:18 PM 51.8 °F 48.2 °F 88% 29.91 in 10.0 mi West 10.4 mph - N/A   Overcast
11:39 PM 51.8 °F 48.2 °F 88% 29.91 in 10.0 mi West 10.4 mph - N/A   Overcast
11:50 PM 51.8 °F 48.2 °F 88% 29.92 in 10.0 mi West 12.7 mph 20.7 mph N/A   Overcast
11:53 PM 51.1 °F 48.0 °F 89% 29.92 in 10.0 mi West 12.7 mph - N/A   Mostly Cloudy